STARLINK-36846

Last updated on Tue Mar 24 2026 00:02:05 GMT+0000 (Coordinated Universal Time)

1 67894U 26035R 26082.53799021 .00181727 00000+0 11927-2 0 9991 2 67894 97.2863 15.6185 0002324 81.7027 278.4502 15.75204299 6023
UTC large
Height (km)
Speed (km/s)
/
Latitude / Longitude
Inclination (degrees)
Orbital Period (minutes)
Azimuth
Elevation
Range (km)
Doppler Factor

Next 0 passes for location: London (51.5072 / 0.1276)

Sorry there are no passes over London.